Time,TemperatureF,DewpointF,PressureIn,WindDirection,WindDirectionDegrees,WindSpeedMPH,WindSpeedGustMPH,Humidity,HourlyPrecipIn,Conditions,Clouds,dailyrainin,SoftwareType,DateUTC
2013-12-14 00:04:00,72.3,60.3,30.03,WNW,300,1.8,4.9,66,0.00,,,0.00,WSDL version 420,2013-12-14 05:04:00,
2013-12-14 00:09:00,72.3,60.3,30.03,ESE,105,2.2,3.6,66,0.00,,,0.00,WSDL version 420,2013-12-14 05:09:00,
2013-12-14 00:14:00,72.3,60.6,30.03,ESE,119,3.7,6.3,67,0.00,,,0.00,WSDL version 420,2013-12-14 05:14:00,
2013-12-14 00:19:00,72.5,60.9,30.03,ENE,65,3.4,7.6,67,0.00,,,0.00,WSDL version 420,2013-12-14 05:19:00,
2013-12-14 00:25:00,72.5,60.9,30.03,NE,48,3.3,7.6,67,0.00,,,0.00,WSDL version 420,2013-12-14 05:25:00,
2013-12-14 00:29:00,72.5,60.9,30.03,ENE,68,4.7,8.7,67,0.00,,,0.00,WSDL version 420,2013-12-14 05:29:00,
2013-12-14 00:34:00,72.5,60.9,30.03,ENE,58,2.6,8.7,67,0.00,,,0.00,WSDL version 420,2013-12-14 05:34:00,
2013-12-14 00:39:00,72.5,60.9,30.03,East,82,3.2,7.6,67,0.00,,,0.00,WSDL version 420,2013-12-14 05:39:00,
2013-12-14 00:44:00,72.5,60.9,30.03,ENE,68,4.0,7.6,67,0.00,,,0.00,WSDL version 420,2013-12-14 05:44:00,
2013-12-14 00:49:00,72.5,61.0,30.03,ENE,60,3.8,6.3,67,0.00,,,0.00,WSDL version 420,2013-12-14 05:49:00,
2013-12-14 00:54:00,72.5,61.3,30.03,NE,56,3.1,6.3,68,0.00,,,0.00,WSDL version 420,2013-12-14 05:54:00,
2013-12-14 00:59:00,72.5,61.3,30.00,ENE,71,2.6,5.8,68,0.00,,,0.00,WSDL version 420,2013-12-14 05:59:00,
2013-12-14 01:04:00,72.5,61.3,30.00,ENE,73,3.5,5.8,68,0.00,,,0.00,WSDL version 420,2013-12-14 06:04:00,
2013-12-14 01:09:00,72.7,61.5,30.00,ENE,65,2.9,5.8,68,0.00,,,0.00,WSDL version 420,2013-12-14 06:09:00,
2013-12-14 01:14:00,72.6,61.5,30.03,ENE,77,3.5,5.6,68,0.00,,,0.00,WSDL version 420,2013-12-14 06:14:00,
2013-12-14 01:19:00,72.7,61.7,30.03,ENE,68,3.7,5.8,69,0.00,,,0.00,WSDL version 420,2013-12-14 06:19:00,
2013-12-14 01:24:00,72.7,61.9,30.03,East,84,3.3,7.4,69,0.00,,,0.00,WSDL version 420,2013-12-14 06:24:00,
2013-12-14 01:29:00,72.7,61.9,30.03,SSE,148,2.2,7.4,69,0.00,,,0.00,WSDL version 420,2013-12-14 06:29:00,
2013-12-14 01:34:00,72.7,61.9,30.03,East,84,3.5,4.7,69,0.00,,,0.00,WSDL version 420,2013-12-14 06:34:00,
2013-12-14 01:39:00,72.9,62.1,30.03,NE,56,3.7,7.4,69,0.00,,,0.00,WSDL version 420,2013-12-14 06:39:00,
2013-12-14 01:44:00,72.9,62.5,30.03,East,90,4.6,7.4,70,0.00,,,0.00,WSDL version 420,2013-12-14 06:44:00,
2013-12-14 01:49:00,72.6,62.3,30.03,ENE,60,2.5,6.7,70,0.00,,,0.00,WSDL version 420,2013-12-14 06:49:00,
2013-12-14 01:54:00,72.3,62.6,30.03,ENE,68,3.8,6.7,72,0.00,,,0.00,WSDL version 420,2013-12-14 06:54:00,
2013-12-14 01:59:00,72.1,62.8,30.00,South,176,2.1,6.3,73,0.00,,,0.00,WSDL version 420,2013-12-14 06:59:00,
2013-12-14 02:04:00,72.1,62.8,30.00,East,96,2.6,6.3,73,0.00,,,0.00,WSDL version 420,2013-12-14 07:04:00,
2013-12-14 02:09:00,72.1,63.0,30.00,ESE,109,1.7,5.8,73,0.00,,,0.00,WSDL version 420,2013-12-14 07:09:00,
2013-12-14 02:14:00,72.0,62.8,30.00,South,191,2.0,5.8,73,0.00,,,0.00,WSDL version 420,2013-12-14 07:14:00,
2013-12-14 02:19:00,71.8,62.7,30.00,East,86,0.7,3.4,73,0.00,,,0.00,WSDL version 420,2013-12-14 07:19:00,
2013-12-14 02:24:00,71.7,62.6,30.00,SE,146,0.3,2.5,73,0.00,,,0.00,WSDL version 420,2013-12-14 07:24:00,
2013-12-14 02:29:00,71.5,62.6,29.97,SE,135,0.0,2.7,74,0.00,,,0.00,WSDL version 420,2013-12-14 07:29:00,
2013-12-14 02:34:00,71.4,62.7,29.97,WSW,253,0.2,2.7,74,0.00,,,0.00,WSDL version 420,2013-12-14 07:34:00,
2013-12-14 02:39:00,71.3,62.9,29.97,ESE,106,0.0,1.6,75,0.00,,,0.00,WSDL version 420,2013-12-14 07:39:00,
2013-12-14 02:44:00,71.2,62.9,29.97,East,99,1.0,2.0,75,0.00,,,0.00,WSDL version 420,2013-12-14 07:44:00,
2013-12-14 02:49:00,71.2,62.9,29.97,East,101,0.0,2.0,75,0.00,,,0.00,WSDL version 420,2013-12-14 07:49:00,
2013-12-14 02:54:00,71.2,63.3,29.97,East,79,0.2,2.5,76,0.00,,,0.00,WSDL version 420,2013-12-14 07:54:00,
2013-12-14 02:59:00,71.2,63.3,30.00,ESE,113,1.0,2.5,76,0.00,,,0.00,WSDL version 420,2013-12-14 07:59:00,
2013-12-14 03:04:00,71.1,63.2,30.00,WNW,284,0.0,2.0,76,0.00,,,0.00,WSDL version 420,2013-12-14 08:04:00,
2013-12-14 03:09:00,71.2,63.3,30.00,ENE,64,1.1,2.5,76,0.00,,,0.00,WSDL version 420,2013-12-14 08:09:00,
2013-12-14 03:14:00,71.3,63.6,29.97,ENE,77,1.9,4.0,77,0.00,,,0.00,WSDL version 420,2013-12-14 08:14:00,
2013-12-14 03:19:00,71.4,64.0,29.97,East,79,2.6,4.7,78,0.00,,,0.00,WSDL version 420,2013-12-14 08:19:00,
2013-12-14 03:24:00,71.4,64.2,29.97,ENE,71,1.8,4.7,78,0.00,,,0.00,WSDL version 420,2013-12-14 08:24:00,
2013-12-14 03:29:00,71.5,64.3,29.97,NNE,26,1.1,3.6,78,0.00,,,0.00,WSDL version 420,2013-12-14 08:29:00,
2013-12-14 03:34:00,71.6,64.3,29.97,ESE,109,0.6,3.1,78,0.00,,,0.00,WSDL version 420,2013-12-14 08:34:00,
2013-12-14 03:39:00,71.6,64.3,29.97,ESE,113,1.4,3.1,77,0.00,,,0.00,WSDL version 420,2013-12-14 08:39:00,
2013-12-14 03:44:00,71.5,64.3,29.94,ENE,71,0.0,3.1,78,0.00,,,0.00,WSDL version 420,2013-12-14 08:44:00,
2013-12-14 03:49:00,71.4,64.2,29.94,ENE,68,0.9,3.1,78,0.00,,,0.00,WSDL version 420,2013-12-14 08:49:00,
2013-12-14 03:54:00,71.4,64.2,29.94,NNE,32,1.1,2.7,78,0.00,,,0.00,WSDL version 420,2013-12-14 08:54:00,
2013-12-14 03:59:00,71.4,64.3,29.97,West,270,0.4,2.7,79,0.00,,,0.00,WSDL version 420,2013-12-14 08:59:00,
2013-12-14 04:05:00,71.4,64.6,29.97,East,87,1.3,2.7,79,0.00,,,0.00,WSDL version 420,2013-12-14 09:05:00,
2013-12-14 04:14:00,71.5,64.5,29.94,North,356,1.2,3.8,78,0.00,,,0.00,WSDL version 420,2013-12-14 09:14:00,
2013-12-14 04:19:00,71.6,64.4,29.94,East,93,0.9,3.4,78,0.00,,,0.00,WSDL version 420,2013-12-14 09:19:00,
2013-12-14 04:24:00,71.6,64.4,29.94,ESE,109,1.1,2.9,78,0.00,,,0.00,WSDL version 420,2013-12-14 09:24:00,
2013-12-14 04:29:00,71.6,64.4,29.94,East,90,1.6,4.3,78,0.00,,,0.00,WSDL version 420,2013-12-14 09:29:00,
2013-12-14 04:34:00,71.6,64.4,29.94,East,87,1.5,4.3,78,0.00,,,0.00,WSDL version 420,2013-12-14 09:34:00,
2013-12-14 04:39:00,71.6,64.4,29.94,ESE,113,1.5,2.9,78,0.00,,,0.00,WSDL version 420,2013-12-14 09:39:00,
2013-12-14 04:44:00,71.4,64.2,29.97,East,90,0.0,2.9,78,0.00,,,0.00,WSDL version 420,2013-12-14 09:44:00,
2013-12-14 04:49:00,71.4,64.3,29.97,East,86,1.1,2.9,78,0.00,,,0.00,WSDL version 420,2013-12-14 09:49:00,
2013-12-14 04:54:00,71.4,64.6,29.97,NW,308,0.6,2.9,79,0.00,,,0.00,WSDL version 420,2013-12-14 09:54:00,
2013-12-14 04:59:00,71.4,64.6,29.97,SE,126,1.0,1.3,79,0.00,,,0.00,WSDL version 420,2013-12-14 09:59:00,
2013-12-14 05:04:00,71.5,64.6,29.97,SSW,199,1.0,2.7,79,0.00,,,0.00,WSDL version 420,2013-12-14 10:04:00,
2013-12-14 05:09:00,71.4,64.6,29.97,South,169,0.6,2.7,79,0.00,,,0.00,WSDL version 420,2013-12-14 10:09:00,
2013-12-14 05:14:00,71.6,64.7,29.94,ENE,75,0.6,2.5,79,0.00,,,0.00,WSDL version 420,2013-12-14 10:14:00,
2013-12-14 05:19:00,71.6,64.7,29.94,ESE,116,0.5,2.0,79,0.00,,,0.00,WSDL version 420,2013-12-14 10:19:00,
2013-12-14 05:24:00,71.6,64.7,29.94,ENE,72,0.2,2.9,79,0.00,,,0.00,WSDL version 420,2013-12-14 10:24:00,
2013-12-14 05:30:00,71.6,64.7,29.97,ENE,77,1.4,2.9,79,0.00,,,0.00,WSDL version 420,2013-12-14 10:30:00,
2013-12-14 05:35:00,71.6,64.7,29.97,ESE,109,0.6,2.5,79,0.00,,,0.00,WSDL version 420,2013-12-14 10:35:00,
2013-12-14 05:40:00,71.6,64.7,29.97,NE,49,0.0,2.5,79,0.00,,,0.00,WSDL version 420,2013-12-14 10:40:00,
2013-12-14 05:45:00,71.5,64.6,29.97,East,90,0.0,1.3,79,0.00,,,0.00,WSDL version 420,2013-12-14 10:45:00,
2013-12-14 05:54:00,71.3,64.8,29.97,ENE,58,0.0,0.0,80,0.00,,,0.00,WSDL version 420,2013-12-14 10:54:00,
2013-12-14 05:59:00,71.2,64.8,29.97,East,79,0.1,0.9,80,0.00,,,0.00,WSDL version 420,2013-12-14 10:59:00,
2013-12-14 06:04:00,71.1,64.6,29.97,SE,128,0.3,2.5,80,0.00,,,0.00,WSDL version 420,2013-12-14 11:04:00,
2013-12-14 06:09:00,71.1,64.6,29.97,ESE,122,0.1,2.5,80,0.00,,,0.00,WSDL version 420,2013-12-14 11:09:00,
2013-12-14 06:14:00,71.1,64.6,29.97,SE,135,0.0,2.5,80,0.00,,,0.00,WSDL version 420,2013-12-14 11:14:00,
2013-12-14 06:19:00,71.1,64.6,29.97,ESE,109,0.0,2.2,80,0.00,,,0.00,WSDL version 420,2013-12-14 11:19:00,
2013-12-14 06:24:00,70.9,64.4,29.97,SE,135,0.0,2.2,80,0.00,,,0.00,WSDL version 420,2013-12-14 11:24:00,
2013-12-14 06:29:00,70.9,64.4,29.97,SE,135,0.0,2.5,80,0.00,,,0.00,WSDL version 420,2013-12-14 11:29:00,
2013-12-14 06:34:00,70.9,64.4,29.97,East,90,0.0,2.5,80,0.00,,,0.00,WSDL version 420,2013-12-14 11:34:00,
2013-12-14 06:39:00,70.9,64.4,29.97,ESE,113,0.0,0.0,80,0.00,,,0.00,WSDL version 420,2013-12-14 11:39:00,
2013-12-14 06:44:00,70.9,64.4,30.00,South,180,0.0,0.0,80,0.00,,,0.00,WSDL version 420,2013-12-14 11:44:00,
2013-12-14 06:49:00,70.9,64.4,30.00,East,90,0.0,0.0,80,0.00,,,0.00,WSDL version 420,2013-12-14 11:49:00,
2013-12-14 06:54:00,70.8,64.3,30.00,East,90,0.0,0.0,80,0.00,,,0.00,WSDL version 420,2013-12-14 11:54:00,
2013-12-14 06:59:00,70.7,64.2,30.00,SE,135,0.0,0.0,80,0.00,,,0.00,WSDL version 420,2013-12-14 11:59:00,
2013-12-14 07:04:00,70.7,64.2,30.00,SE,135,0.0,0.0,80,0.00,,,0.00,WSDL version 420,2013-12-14 12:04:00,
2013-12-14 07:09:00,70.7,64.2,30.00,SSW,210,0.0,0.0,80,0.00,,,0.00,WSDL version 420,2013-12-14 12:09:00,
2013-12-14 07:14:00,70.7,64.2,30.00,SE,135,0.0,0.0,80,0.00,,,0.00,WSDL version 420,2013-12-14 12:14:00,
2013-12-14 07:19:00,70.7,64.2,30.00,North,6,0.3,1.6,80,0.00,,,0.00,WSDL version 420,2013-12-14 12:19:00,
2013-12-14 07:24:00,70.8,64.3,30.00,North,5,0.0,1.6,80,0.00,,,0.00,WSDL version 420,2013-12-14 12:24:00,
2013-12-14 07:29:00,70.9,64.5,30.00,ENE,77,0.3,1.6,80,0.00,,,0.00,WSDL version 420,2013-12-14 12:29:00,
2013-12-14 07:34:00,71.1,64.9,30.00,ENE,59,0.7,1.6,81,0.00,,,0.00,WSDL version 420,2013-12-14 12:34:00,
2013-12-14 07:39:00,71.4,65.3,30.00,NW,326,0.4,1.6,81,0.00,,,0.00,WSDL version 420,2013-12-14 12:39:00,
2013-12-14 07:44:00,71.6,65.2,30.00,South,176,1.1,2.0,80,0.00,,,0.00,WSDL version 420,2013-12-14 12:44:00,
2013-12-14 07:49:00,71.9,65.4,30.00,ESE,109,0.9,2.0,80,0.00,,,0.00,WSDL version 420,2013-12-14 12:49:00,
2013-12-14 07:54:00,72.2,65.7,30.00,NE,38,0.6,2.0,80,0.00,,,0.00,WSDL version 420,2013-12-14 12:54:00,
2013-12-14 07:59:00,72.6,66.0,30.00,SSW,207,2.1,4.3,80,0.00,,,0.00,WSDL version 420,2013-12-14 12:59:00,
2013-12-14 08:04:00,72.8,66.0,30.00,South,180,1.1,4.3,79,0.00,,,0.00,WSDL version 420,2013-12-14 13:04:00,
2013-12-14 08:09:00,73.1,66.6,30.00,SSE,151,1.6,3.8,80,0.00,,,0.00,WSDL version 420,2013-12-14 13:09:00,
2013-12-14 08:14:00,73.5,66.6,30.00,South,169,1.1,3.8,79,0.00,,,0.00,WSDL version 420,2013-12-14 13:14:00,
2013-12-14 08:19:00,73.9,66.7,30.00,South,190,2.4,4.7,78,0.00,,,0.00,WSDL version 420,2013-12-14 13:19:00,
2013-12-14 08:24:00,74.1,66.7,30.00,NNE,26,2.2,4.7,77,0.00,,,0.00,WSDL version 420,2013-12-14 13:24:00,
2013-12-14 08:29:00,74.2,66.3,30.00,SSW,212,1.9,4.3,76,0.00,,,0.00,WSDL version 420,2013-12-14 13:29:00,
2013-12-14 08:34:00,74.6,66.4,30.00,East,86,3.0,4.9,75,0.00,,,0.00,WSDL version 420,2013-12-14 13:34:00,
2013-12-14 08:39:00,74.9,66.5,30.00,South,190,1.9,4.9,75,0.00,,,0.00,WSDL version 420,2013-12-14 13:39:00,
2013-12-14 08:44:00,75.1,66.5,30.03,South,177,2.7,4.0,74,0.00,,,0.00,WSDL version 420,2013-12-14 13:44:00,
2013-12-14 08:49:00,75.4,66.2,30.03,SE,135,2.7,4.9,73,0.00,,,0.00,WSDL version 420,2013-12-14 13:49:00,
2013-12-14 08:54:00,75.6,65.8,30.03,WNW,300,2.7,4.9,71,0.00,,,0.00,WSDL version 420,2013-12-14 13:54:00,
2013-12-14 08:59:00,75.7,65.7,30.03,East,90,3.4,7.6,71,0.00,,,0.00,WSDL version 420,2013-12-14 13:59:00,
2013-12-14 09:04:00,76.0,65.6,30.03,SE,128,2.8,7.6,70,0.00,,,0.00,WSDL version 420,2013-12-14 14:04:00,
2013-12-14 09:09:00,76.2,65.7,30.03,NNW,347,1.7,3.6,70,0.00,,,0.00,WSDL version 420,2013-12-14 14:09:00,
2013-12-14 09:14:00,76.3,65.4,30.00,ESE,113,3.1,5.4,69,0.00,,,0.00,WSDL version 420,2013-12-14 14:14:00,
2013-12-14 09:19:00,76.6,65.7,30.00,NE,56,2.7,5.6,69,0.00,,,0.00,WSDL version 420,2013-12-14 14:19:00,
2013-12-14 09:24:00,77.0,66.0,30.00,NW,315,2.5,5.6,69,0.00,,,0.00,WSDL version 420,2013-12-14 14:24:00,
2013-12-14 09:29:00,77.3,65.9,30.00,SSW,200,2.6,4.3,68,0.00,,,0.00,WSDL version 420,2013-12-14 14:29:00,
2013-12-14 09:34:00,77.4,65.7,30.00,ENE,60,2.6,5.6,67,0.00,,,0.00,WSDL version 420,2013-12-14 14:34:00,
2013-12-14 09:39:00,77.5,65.6,30.00,SE,138,2.7,5.6,67,0.00,,,0.00,WSDL version 420,2013-12-14 14:39:00,
2013-12-14 09:44:00,78.0,65.8,30.03,ESE,103,3.6,9.6,66,0.00,,,0.00,WSDL version 420,2013-12-14 14:44:00,
2013-12-14 09:49:00,78.4,66.0,30.03,SSW,194,3.4,9.6,66,0.00,,,0.00,WSDL version 420,2013-12-14 14:49:00,
2013-12-14 09:54:00,78.8,65.9,30.03,North,350,2.1,9.6,64,0.00,,,0.00,WSDL version 420,2013-12-14 14:54:00,
2013-12-14 09:59:00,79.2,65.8,30.03,South,173,3.5,7.4,63,0.00,,,0.00,WSDL version 420,2013-12-14 14:59:00,
2013-12-14 10:04:00,79.2,65.2,30.03,WNW,286,2.1,7.4,62,0.00,,,0.00,WSDL version 420,2013-12-14 15:04:00,
2013-12-14 10:09:00,79.4,65.3,30.03,South,188,3.5,5.4,62,0.00,,,0.00,WSDL version 420,2013-12-14 15:09:00,
2013-12-14 10:14:00,79.7,65.2,30.00,NE,55,3.9,6.9,61,0.00,,,0.00,WSDL version 420,2013-12-14 15:14:00,
2013-12-14 10:19:00,80.0,65.6,30.00,NW,318,3.9,7.6,61,0.00,,,0.00,WSDL version 420,2013-12-14 15:19:00,
2013-12-14 10:24:00,79.7,65.0,30.00,WSW,244,2.8,7.6,61,0.00,,,0.00,WSDL version 420,2013-12-14 15:24:00,
2013-12-14 10:29:00,80.0,65.3,30.03,West,278,2.5,5.8,61,0.00,,,0.00,WSDL version 420,2013-12-14 15:29:00,
2013-12-14 10:34:00,80.4,65.7,30.03,SSW,206,2.9,5.8,61,0.00,,,0.00,WSDL version 420,2013-12-14 15:34:00,
2013-12-14 10:39:00,80.9,66.0,30.03,West,259,3.7,6.5,60,0.00,,,0.00,WSDL version 420,2013-12-14 15:39:00,
2013-12-14 10:44:00,80.9,64.5,30.06,SE,138,3.7,6.5,58,0.00,,,0.00,WSDL version 420,2013-12-14 15:44:00,
2013-12-14 10:49:00,80.8,64.3,30.06,South,180,3.1,7.4,57,0.00,,,0.00,WSDL version 420,2013-12-14 15:49:00,
2013-12-14 10:54:00,80.7,64.2,30.06,SW,219,2.5,7.4,58,0.00,,,0.00,WSDL version 420,2013-12-14 15:54:00,
2013-12-14 10:59:00,81.1,64.6,30.03,SE,138,3.8,7.6,58,0.00,,,0.00,WSDL version 420,2013-12-14 15:59:00,
2013-12-14 11:04:00,81.3,65.1,30.03,NNE,14,3.3,7.6,58,0.00,,,0.00,WSDL version 420,2013-12-14 16:04:00,
2013-12-14 11:09:00,81.5,64.8,30.03,East,90,3.6,7.8,56,0.00,,,0.00,WSDL version 420,2013-12-14 16:09:00,
2013-12-14 11:14:00,81.5,63.5,30.00,South,174,3.5,7.8,54,0.00,,,0.00,WSDL version 420,2013-12-14 16:14:00,
2013-12-14 11:19:00,81.6,63.4,30.00,NE,34,3.7,6.0,54,0.00,,,0.00,WSDL version 420,2013-12-14 16:19:00,
2013-12-14 11:24:00,81.7,63.7,30.00,SE,132,3.6,7.2,55,0.00,,,0.00,WSDL version 420,2013-12-14 16:24:00,
2013-12-14 11:29:00,82.0,64.1,29.97,East,95,3.4,8.7,54,0.00,,,0.00,WSDL version 420,2013-12-14 16:29:00,
2013-12-14 11:34:00,81.6,63.3,29.97,SE,144,3.0,8.7,55,0.00,,,0.00,WSDL version 420,2013-12-14 16:34:00,
2013-12-14 11:39:00,81.6,64.0,29.97,SSE,158,2.6,7.6,55,0.00,,,0.00,WSDL version 420,2013-12-14 16:39:00,
2013-12-14 11:44:00,81.6,63.7,29.97,ESE,119,3.2,6.5,55,0.00,,,0.00,WSDL version 420,2013-12-14 16:44:00,
2013-12-14 11:49:00,81.8,64.3,29.97,SE,128,4.3,10.3,56,0.00,,,0.00,WSDL version 420,2013-12-14 16:49:00,
2013-12-14 11:54:00,82.1,64.9,29.97,ENE,77,3.2,10.3,56,0.00,,,0.00,WSDL version 420,2013-12-14 16:54:00,
2013-12-14 11:59:00,82.0,63.9,29.97,North,353,3.7,8.5,55,0.00,,,0.00,WSDL version 420,2013-12-14 16:59:00,
2013-12-14 12:04:00,81.9,63.9,29.97,SSE,158,3.9,8.5,54,0.00,,,0.00,WSDL version 420,2013-12-14 17:04:00,
2013-12-14 12:09:00,81.9,64.1,29.97,NE,49,2.2,6.0,55,0.00,,,0.00,WSDL version 420,2013-12-14 17:09:00,
2013-12-14 12:14:00,82.2,64.7,29.97,SW,225,2.7,5.6,56,0.00,,,0.00,WSDL version 420,2013-12-14 17:14:00,
2013-12-14 12:19:00,82.2,64.2,29.97,SE,125,2.9,6.0,55,0.00,,,0.00,WSDL version 420,2013-12-14 17:19:00,
2013-12-14 12:24:00,82.6,64.7,29.97,South,176,3.8,6.0,54,0.00,,,0.00,WSDL version 420,2013-12-14 17:24:00,
2013-12-14 12:29:00,82.6,64.2,29.97,North,11,2.3,7.6,54,0.00,,,0.00,WSDL version 420,2013-12-14 17:29:00,
2013-12-14 12:34:00,82.5,63.7,29.97,WNW,286,3.0,7.6,53,0.00,,,0.00,WSDL version 420,2013-12-14 17:34:00,
2013-12-14 12:39:00,82.1,63.6,29.97,ESE,113,2.6,5.4,54,0.00,,,0.00,WSDL version 420,2013-12-14 17:39:00,
2013-12-14 12:44:00,82.5,64.2,29.94,South,183,3.6,6.5,54,0.00,,,0.00,WSDL version 420,2013-12-14 17:44:00,
2013-12-14 12:49:00,82.1,63.9,29.94,SW,231,3.8,6.5,54,0.00,,,0.00,WSDL version 420,2013-12-14 17:49:00,
2013-12-14 12:54:00,82.0,64.1,29.94,South,169,3.0,9.6,54,0.00,,,0.00,WSDL version 420,2013-12-14 17:54:00,
2013-12-14 12:59:00,81.8,63.6,29.94,SSE,150,2.3,9.6,54,0.00,,,0.00,WSDL version 420,2013-12-14 17:59:00,
2013-12-14 13:04:00,82.1,64.4,29.94,South,188,3.2,6.3,55,0.00,,,0.00,WSDL version 420,2013-12-14 18:04:00,
2013-12-14 13:09:00,82.2,64.5,29.94,ESE,115,3.7,7.4,55,0.00,,,0.00,WSDL version 420,2013-12-14 18:09:00,
2013-12-14 13:14:00,82.3,64.3,29.94,SSE,150,3.2,7.4,54,0.00,,,0.00,WSDL version 420,2013-12-14 18:14:00,
2013-12-14 13:19:00,82.3,64.0,29.94,SE,129,4.5,7.4,54,0.00,,,0.00,WSDL version 420,2013-12-14 18:19:00,
2013-12-14 13:24:00,82.3,64.0,29.94,SE,138,4.2,7.8,54,0.00,,,0.00,WSDL version 420,2013-12-14 18:24:00,
2013-12-14 13:29:00,82.6,64.3,29.94,ESE,106,3.1,7.8,54,0.00,,,0.00,WSDL version 420,2013-12-14 18:29:00,
2013-12-14 13:34:00,83.1,64.5,29.94,ESE,116,2.5,6.0,53,0.00,,,0.00,WSDL version 420,2013-12-14 18:34:00,
2013-12-14 13:39:00,83.1,64.4,29.94,SE,125,3.1,5.6,53,0.00,,,0.00,WSDL version 420,2013-12-14 18:39:00,
2013-12-14 13:44:00,82.7,63.7,29.91,ENE,76,3.6,6.0,53,0.00,,,0.00,WSDL version 420,2013-12-14 18:44:00,
2013-12-14 13:49:00,82.7,63.9,29.91,NW,323,2.2,6.0,53,0.00,,,0.00,WSDL version 420,2013-12-14 18:49:00,
2013-12-14 13:54:00,82.4,63.8,29.91,NNE,32,2.2,4.5,54,0.00,,,0.00,WSDL version 420,2013-12-14 18:54:00,
2013-12-14 13:59:00,82.6,64.6,29.91,WNW,288,2.4,6.3,55,0.00,,,0.00,WSDL version 420,2013-12-14 18:59:00,
2013-12-14 14:04:00,82.6,64.6,29.91,NNE,25,3.0,6.3,54,0.00,,,0.00,WSDL version 420,2013-12-14 19:04:00,
2013-12-14 14:09:00,81.9,64.2,29.91,NNW,338,2.8,6.3,55,0.00,,,0.00,WSDL version 420,2013-12-14 19:09:00,
2013-12-14 14:14:00,81.7,64.6,29.91,SSW,194,2.7,4.3,57,0.00,,,0.00,WSDL version 420,2013-12-14 19:14:00,
2013-12-14 14:19:00,81.7,64.9,29.91,SSE,164,2.4,4.5,57,0.00,,,0.00,WSDL version 420,2013-12-14 19:19:00,
2013-12-14 14:24:00,81.7,64.7,29.91,SE,135,3.6,6.3,56,0.00,,,0.00,WSDL version 420,2013-12-14 19:24:00,
2013-12-14 14:29:00,81.7,64.8,29.91,South,176,2.2,6.3,57,0.00,,,0.00,WSDL version 420,2013-12-14 19:29:00,
2013-12-14 14:34:00,82.7,65.9,29.91,WSW,254,7.0,11.0,56,0.00,,,0.00,WSDL version 420,2013-12-14 19:34:00,
2013-12-14 14:39:00,83.3,64.6,29.91,ENE,68,3.8,11.0,53,0.00,,,0.00,WSDL version 420,2013-12-14 19:39:00,
2013-12-14 14:44:00,82.7,63.3,29.88,SSE,154,5.4,6.5,52,0.00,,,0.00,WSDL version 420,2013-12-14 19:44:00,
2013-12-14 14:49:00,82.9,63.7,29.88,SE,131,3.6,6.5,53,0.00,,,0.00,WSDL version 420,2013-12-14 19:49:00,
2013-12-14 14:54:00,82.7,63.6,29.88,SE,124,2.7,6.5,53,0.00,,,0.00,WSDL version 420,2013-12-14 19:54:00,
2013-12-14 14:59:00,82.8,63.4,29.88,ENE,76,2.9,6.5,52,0.00,,,0.00,WSDL version 420,2013-12-14 19:59:00,
2013-12-14 15:04:00,82.8,63.1,29.88,South,180,4.0,6.5,51,0.00,,,0.00,WSDL version 420,2013-12-14 20:04:00,
2013-12-14 15:09:00,82.3,62.6,29.88,SE,146,3.1,6.5,52,0.00,,,0.00,WSDL version 420,2013-12-14 20:09:00,
2013-12-14 15:14:00,81.7,62.4,29.91,SE,128,3.8,4.9,52,0.00,,,0.00,WSDL version 420,2013-12-14 20:14:00,
2013-12-14 15:19:00,81.4,62.4,29.91,North,11,3.2,4.9,52,0.00,,,0.00,WSDL version 420,2013-12-14 20:19:00,
2013-12-14 15:24:00,81.5,62.7,29.91,ENE,64,2.1,5.4,53,0.00,,,0.00,WSDL version 420,2013-12-14 20:24:00,
2013-12-14 15:29:00,81.5,63.0,29.91,SSE,158,3.7,6.3,53,0.00,,,0.00,WSDL version 420,2013-12-14 20:29:00,
2013-12-14 15:34:00,81.0,62.2,29.91,SSW,206,2.9,6.3,53,0.00,,,0.00,WSDL version 420,2013-12-14 20:34:00,
2013-12-14 15:39:00,80.5,62.1,29.91,SSW,198,2.9,5.6,54,0.00,,,0.00,WSDL version 420,2013-12-14 20:39:00,
2013-12-14 15:44:00,80.4,62.3,29.91,ESE,105,2.7,6.7,54,0.00,,,0.00,WSDL version 420,2013-12-14 20:44:00,
2013-12-14 15:49:00,80.4,62.7,29.91,SE,138,2.6,6.7,55,0.00,,,0.00,WSDL version 420,2013-12-14 20:49:00,
2013-12-14 15:54:00,80.3,62.7,29.91,SSE,160,4.1,7.2,55,0.00,,,0.00,WSDL version 420,2013-12-14 20:54:00,
2013-12-14 15:59:00,80.2,63.0,29.91,South,184,4.3,7.6,55,0.00,,,0.00,WSDL version 420,2013-12-14 20:59:00,
2013-12-14 16:04:00,80.2,62.9,29.91,ESE,116,2.9,7.6,55,0.00,,,0.00,WSDL version 420,2013-12-14 21:04:00,
2013-12-14 16:09:00,80.2,62.9,29.91,SE,124,3.0,7.6,56,0.00,,,0.00,WSDL version 420,2013-12-14 21:09:00,
2013-12-14 16:14:00,80.2,63.1,29.91,SE,135,2.6,7.6,56,0.00,,,0.00,WSDL version 420,2013-12-14 21:14:00,
2013-12-14 16:19:00,80.2,63.3,29.91,East,87,1.5,4.3,57,0.00,,,0.00,WSDL version 420,2013-12-14 21:19:00,
2013-12-14 16:24:00,80.2,63.6,29.91,WNW,298,2.2,6.7,57,0.00,,,0.00,WSDL version 420,2013-12-14 21:24:00,
2013-12-14 16:29:00,80.0,63.1,29.91,ESE,113,2.0,6.7,56,0.00,,,0.00,WSDL version 420,2013-12-14 21:29:00,
2013-12-14 16:34:00,79.7,62.7,29.91,SE,132,1.8,4.3,57,0.00,,,0.00,WSDL version 420,2013-12-14 21:34:00,
2013-12-14 16:39:00,79.3,62.8,29.91,South,174,2.5,4.3,57,0.00,,,0.00,WSDL version 420,2013-12-14 21:39:00,
2013-12-14 16:44:00,79.0,62.5,29.91,South,185,2.2,3.6,57,0.00,,,0.00,WSDL version 420,2013-12-14 21:44:00,
2013-12-14 16:49:00,78.7,62.5,29.91,South,173,2.5,5.6,58,0.00,,,0.00,WSDL version 420,2013-12-14 21:49:00,
2013-12-14 16:54:00,78.5,62.5,29.91,SSE,148,1.9,5.6,58,0.00,,,0.00,WSDL version 420,2013-12-14 21:54:00,
2013-12-14 16:59:00,78.2,62.6,29.91,South,173,2.1,4.3,59,0.00,,,0.00,WSDL version 420,2013-12-14 21:59:00,
2013-12-14 17:04:00,77.9,62.4,29.91,South,180,1.6,2.7,59,0.00,,,0.00,WSDL version 420,2013-12-14 22:04:00,
2013-12-14 17:09:00,77.5,62.6,29.91,South,180,0.9,2.7,60,0.00,,,0.00,WSDL version 420,2013-12-14 22:09:00,
2013-12-14 17:14:00,77.3,62.3,29.91,NNE,25,0.0,2.2,60,0.00,,,0.00,WSDL version 420,2013-12-14 22:14:00,
2013-12-14 17:19:00,77.0,62.6,29.91,SW,225,0.2,2.2,61,0.00,,,0.00,WSDL version 420,2013-12-14 22:19:00,
2013-12-14 17:24:00,76.8,62.8,29.91,SE,145,1.7,3.1,62,0.00,,,0.00,WSDL version 420,2013-12-14 22:24:00,
2013-12-14 17:29:00,76.7,62.8,29.91,South,180,1.9,3.4,63,0.00,,,0.00,WSDL version 420,2013-12-14 22:29:00,
2013-12-14 17:34:00,76.4,62.9,29.91,South,180,0.0,3.4,63,0.00,,,0.00,WSDL version 420,2013-12-14 22:34:00,
2013-12-14 17:39:00,76.2,63.0,29.91,South,180,0.0,1.1,64,0.00,,,0.00,WSDL version 420,2013-12-14 22:39:00,
2013-12-14 17:44:00,76.0,62.9,29.91,WSW,238,0.0,1.3,64,0.00,,,0.00,WSDL version 420,2013-12-14 22:44:00,
2013-12-14 17:49:00,75.7,62.9,29.91,SSW,203,0.0,1.3,65,0.00,,,0.00,WSDL version 420,2013-12-14 22:49:00,
2013-12-14 17:55:00,75.6,63.0,29.91,SW,222,0.0,0.9,65,0.00,,,0.00,WSDL version 420,2013-12-14 22:55:00,
2013-12-14 18:04:00,75.3,63.1,29.91,SSE,158,0.0,1.6,66,0.00,,,0.00,WSDL version 420,2013-12-14 23:04:00,
2013-12-14 18:09:00,75.0,63.5,29.91,East,100,0.0,1.6,67,0.00,,,0.00,WSDL version 420,2013-12-14 23:09:00,
2013-12-14 18:14:00,75.0,63.5,29.91,NE,37,0.0,1.6,68,0.00,,,0.00,WSDL version 420,2013-12-14 23:14:00,
2013-12-14 18:19:00,74.8,63.6,29.91,SSW,209,0.4,1.3,68,0.00,,,0.00,WSDL version 420,2013-12-14 23:19:00,
2013-12-14 18:24:00,74.8,63.7,29.91,NW,308,1.1,2.2,69,0.00,,,0.00,WSDL version 420,2013-12-14 23:24:00,
2013-12-14 18:29:00,74.7,63.8,29.94,ENE,75,0.4,2.2,69,0.00,,,0.00,WSDL version 420,2013-12-14 23:29:00,
2013-12-14 18:34:00,74.7,64.1,29.94,WNW,284,0.7,2.2,70,0.00,,,0.00,WSDL version 420,2013-12-14 23:34:00,
2013-12-14 18:39:00,74.7,64.2,29.94,South,180,0.0,2.2,70,0.00,,,0.00,WSDL version 420,2013-12-14 23:39:00,
2013-12-14 18:44:00,74.7,64.3,29.91,NNW,345,0.0,2.0,70,0.00,,,0.00,WSDL version 420,2013-12-14 23:44:00,
2013-12-14 18:50:00,74.7,64.5,29.91,SSE,162,0.0,2.0,71,0.00,,,0.00,WSDL version 420,2013-12-14 23:50:00,
2013-12-14 18:59:00,74.8,64.8,29.91,NE,38,0.5,2.0,71,0.00,,,0.00,WSDL version 420,2013-12-14 23:59:00,
2013-12-14 19:04:00,74.8,64.9,29.91,South,169,0.0,2.0,72,0.00,,,0.00,WSDL version 420,2013-12-15 00:04:00,
2013-12-14 19:09:00,74.7,65.0,29.91,East,90,0.9,1.1,72,0.00,,,0.00,WSDL version 420,2013-12-15 00:09:00,
2013-12-14 19:14:00,74.6,65.0,29.91,SSE,158,1.1,2.2,72,0.00,,,0.00,WSDL version 420,2013-12-15 00:14:00,
2013-12-14 19:19:00,74.5,64.9,29.91,South,180,1.0,2.2,72,0.00,,,0.00,WSDL version 420,2013-12-15 00:19:00,
2013-12-14 19:24:00,74.5,65.3,29.91,South,169,0.7,2.5,73,0.00,,,0.00,WSDL version 420,2013-12-15 00:24:00,
2013-12-14 19:29:00,74.5,65.3,29.91,South,180,0.9,2.5,73,0.00,,,0.00,WSDL version 420,2013-12-15 00:29:00,
2013-12-14 19:34:00,74.5,65.3,29.91,South,180,1.0,2.5,73,0.00,,,0.00,WSDL version 420,2013-12-15 00:34:00,
2013-12-14 19:39:00,74.4,65.6,29.91,South,180,1.1,2.2,74,0.00,,,0.00,WSDL version 420,2013-12-15 00:39:00,
2013-12-14 19:44:00,74.3,65.5,29.91,South,180,0.4,2.2,74,0.00,,,0.00,WSDL version 420,2013-12-15 00:44:00,
2013-12-14 19:49:00,74.3,65.5,29.91,South,169,0.0,2.2,74,0.00,,,0.00,WSDL version 420,2013-12-15 00:49:00,
2013-12-14 19:54:00,74.2,65.4,29.91,SE,144,0.7,2.2,74,0.00,,,0.00,WSDL version 420,2013-12-15 00:54:00,
2013-12-14 19:59:00,74.1,65.4,29.91,SE,146,0.0,2.2,75,0.00,,,0.00,WSDL version 420,2013-12-15 00:59:00,
2013-12-14 20:04:00,74.1,65.7,29.91,South,177,1.2,2.7,75,0.00,,,0.00,WSDL version 420,2013-12-15 01:04:00,
2013-12-14 20:09:00,74.1,65.7,29.91,South,177,1.1,2.7,75,0.00,,,0.00,WSDL version 420,2013-12-15 01:09:00,
2013-12-14 20:14:00,74.0,65.6,29.94,SSE,158,1.4,2.7,75,0.00,,,0.00,WSDL version 420,2013-12-15 01:14:00,
2013-12-14 20:19:00,73.9,65.5,29.94,SSE,167,1.3,2.9,75,0.00,,,0.00,WSDL version 420,2013-12-15 01:19:00,
2013-12-14 20:24:00,73.9,65.9,29.94,South,173,1.5,2.9,76,0.00,,,0.00,WSDL version 420,2013-12-15 01:24:00,
2013-12-14 20:29:00,73.8,65.8,29.91,South,174,0.1,2.9,76,0.00,,,0.00,WSDL version 420,2013-12-15 01:29:00,
2013-12-14 20:34:00,73.8,65.7,29.91,SSE,158,1.3,3.1,76,0.00,,,0.00,WSDL version 420,2013-12-15 01:34:00,
2013-12-14 20:39:00,73.6,65.6,29.91,South,180,0.4,3.1,76,0.00,,,0.00,WSDL version 420,2013-12-15 01:39:00,
2013-12-14 20:44:00,73.6,65.6,29.91,South,180,1.3,3.4,76,0.00,,,0.00,WSDL version 420,2013-12-15 01:44:00,
2013-12-14 20:49:00,73.6,65.9,29.91,South,176,2.2,4.7,77,0.00,,,0.00,WSDL version 420,2013-12-15 01:49:00,
2013-12-14 20:54:00,73.6,65.9,29.91,South,180,2.3,4.7,77,0.00,,,0.00,WSDL version 420,2013-12-15 01:54:00,
2013-12-14 20:59:00,73.6,65.9,29.91,SSE,153,2.1,3.8,77,0.00,,,0.00,WSDL version 420,2013-12-15 01:59:00,
2013-12-14 21:04:00,73.6,65.9,29.91,South,174,2.0,3.8,77,0.00,,,0.00,WSDL version 420,2013-12-15 02:04:00,
2013-12-14 21:09:00,73.6,65.9,29.91,South,180,2.3,4.3,77,0.00,,,0.00,WSDL version 420,2013-12-15 02:09:00,
2013-12-14 21:14:00,73.6,65.9,29.94,South,173,2.1,4.3,77,0.00,,,0.00,WSDL version 420,2013-12-15 02:14:00,
2013-12-14 21:19:00,73.6,66.3,29.94,ESE,109,0.4,3.6,78,0.00,,,0.00,WSDL version 420,2013-12-15 02:19:00,
2013-12-14 21:24:00,73.6,66.3,29.94,South,177,1.2,3.8,78,0.00,,,0.00,WSDL version 420,2013-12-15 02:24:00,
2013-12-14 21:29:00,73.4,66.2,29.91,SE,146,1.3,3.8,78,0.00,,,0.00,WSDL version 420,2013-12-15 02:29:00,
2013-12-14 21:34:00,73.5,66.2,29.91,SSE,164,1.3,3.6,78,0.00,,,0.00,WSDL version 420,2013-12-15 02:34:00,
2013-12-14 21:39:00,73.4,66.1,29.91,SSE,158,0.4,2.9,78,0.00,,,0.00,WSDL version 420,2013-12-15 02:39:00,
2013-12-14 21:44:00,73.4,66.1,29.91,East,101,0.0,2.5,78,0.00,,,0.00,WSDL version 420,2013-12-15 02:44:00,
2013-12-14 21:49:00,73.4,66.1,29.91,SSE,165,1.1,2.2,78,0.00,,,0.00,WSDL version 420,2013-12-15 02:49:00,
2013-12-14 21:54:00,73.2,66.3,29.91,South,177,1.0,3.1,79,0.00,,,0.00,WSDL version 420,2013-12-15 02:54:00,
2013-12-14 21:59:00,73.2,66.3,29.91,SSE,165,0.6,3.1,79,0.00,,,0.00,WSDL version 420,2013-12-15 02:59:00,
2013-12-14 22:04:00,73.1,66.2,29.91,South,183,0.9,2.2,79,0.00,,,0.00,WSDL version 420,2013-12-15 03:04:00,
2013-12-14 22:09:00,73.0,66.1,29.91,SSE,148,1.0,2.9,79,0.00,,,0.00,WSDL version 420,2013-12-15 03:09:00,
2013-12-14 22:14:00,73.0,66.1,29.91,South,173,1.2,2.9,79,0.00,,,0.00,WSDL version 420,2013-12-15 03:14:00,
2013-12-14 22:19:00,72.9,66.0,29.91,SSE,167,1.5,3.1,79,0.00,,,0.00,WSDL version 420,2013-12-15 03:19:00,
2013-12-14 22:24:00,72.9,66.2,29.91,SE,146,1.1,3.4,80,0.00,,,0.00,WSDL version 420,2013-12-15 03:24:00,
2013-12-14 22:29:00,72.9,66.3,29.91,SSE,160,2.3,3.8,80,0.00,,,0.00,WSDL version 420,2013-12-15 03:29:00,
2013-12-14 22:34:00,72.9,66.3,29.91,South,174,2.1,3.8,80,0.00,,,0.00,WSDL version 420,2013-12-15 03:34:00,
2013-12-14 22:39:00,72.9,66.3,29.91,SSE,150,1.8,3.6,80,0.00,,,0.00,WSDL version 420,2013-12-15 03:39:00,
2013-12-14 22:44:00,72.9,66.3,29.91,SSE,154,1.6,2.7,80,0.00,,,0.00,WSDL version 420,2013-12-15 03:44:00,
2013-12-14 22:49:00,72.7,66.2,29.91,South,170,1.6,3.6,80,0.00,,,0.00,WSDL version 420,2013-12-15 03:49:00,
2013-12-14 22:54:00,72.7,66.2,29.91,SSE,167,1.5,3.6,80,0.00,,,0.00,WSDL version 420,2013-12-15 03:54:00,
2013-12-14 22:59:00,72.7,66.2,29.91,South,180,0.9,3.1,80,0.00,,,0.00,WSDL version 420,2013-12-15 03:59:00,
2013-12-14 23:04:00,72.7,66.3,29.91,South,174,1.0,2.0,80,0.00,,,0.00,WSDL version 420,2013-12-15 04:04:00,
2013-12-14 23:09:00,72.5,66.2,29.91,South,180,0.7,2.5,81,0.00,,,0.00,WSDL version 420,2013-12-15 04:09:00,
2013-12-14 23:14:00,72.5,66.4,29.91,SSE,158,0.3,2.5,81,0.00,,,0.00,WSDL version 420,2013-12-15 04:14:00,
2013-12-14 23:19:00,72.4,66.3,29.91,South,180,0.5,2.0,81,0.00,,,0.00,WSDL version 420,2013-12-15 04:19:00,
2013-12-14 23:24:00,72.4,66.2,29.91,South,180,0.0,1.3,81,0.00,,,0.00,WSDL version 420,2013-12-15 04:24:00,
2013-12-14 23:29:00,72.3,66.2,29.91,South,180,0.0,1.3,81,0.00,,,0.00,WSDL version 420,2013-12-15 04:29:00,
2013-12-14 23:34:00,72.3,66.2,29.91,South,180,0.0,0.0,81,0.00,,,0.00,WSDL version 420,2013-12-15 04:34:00,
2013-12-14 23:39:00,72.1,66.3,29.91,South,180,0.0,0.0,82,0.00,,,0.00,WSDL version 420,2013-12-15 04:39:00,
2013-12-14 23:44:00,72.1,66.4,29.91,South,180,0.0,0.0,82,0.00,,,0.00,WSDL version 420,2013-12-15 04:44:00,
2013-12-14 23:49:00,72.0,66.3,29.91,South,180,0.0,0.0,82,0.00,,,0.00,WSDL version 420,2013-12-15 04:49:00,
2013-12-14 23:54:00,72.0,66.2,29.91,South,180,0.9,2.0,82,0.00,,,0.00,WSDL version 420,2013-12-15 04:54:00,
2013-12-14 23:59:00,71.9,66.1,29.88,South,180,0.3,2.0,82,0.00,,,0.00,WSDL version 420,2013-12-15 04:59:00,